[[{"header":{"parameterUnit":"m.s-1","parameterCategory":1,"la1":30.2991,"la2":30.254,"lo1":-89.0895,"lo2":-89.0444,"dy":0.0017,"dx":0.0017,"nx":28,"ny":28,"refTime":"2026-01-11T03:00:00:Z","depth":0,"parameterNumber":2,"parameterNumberName":"U-component_of_WINDS"},"data":[0,0,0,0,0,0,0,0,0,0,0,0,0,0,0,0,0,0,0,0,0,0,0,0,0,0,0,0,0,0,0,0,0,0,0,0,0,0,0,0,0,0,0,0,0,0,0,0,0,0,0,0,0,0,0,0,0,0,-0.2921,-0.2921,0,-0.2926,-0.2926,-0.2926,-0.29,-0.2899,-0.2899,-0.2898,-0.2906,-0.2906,-0.2907,0,0,0,0,0,0,0,0,0,0,0,0,0,-0.289,-0.2891,-0.2921,-0.2921,-0.2921,-0.2926,-0.2926,-0.2926,-0.29,-0.2899,-0.2898,-0.2897,-0.2905,-0.2906,-0.2907,0,0,0,0,0,0,0,0,0,0,0,0,0,-0.29,-0.2891,-0.2921,-0.2908,-0.2907,-0.2926,-0.2926,-0.2926,-0.29,-0.2899,-0.2898,-0.2897,-0.2905,-0.2906,-0.2908,-0.2938,0,0,-0.2912,-0.2912,0,0,0,0,0,0,0,0,-0.29,-0.2901,-0.291,-0.2909,-0.2908,-0.2911,-0.2918,-0.293,-0.2901,-0.2903,-0.2898,-0.2897,-0.2908,-0.2909,-0.2913,-0.2939,-0.2939,-0.2912,-0.2913,-0.2913,-0.2914,0,0,0,0,0,0,0,-0.2899,-0.2901,-0.2923,-0.291,-0.2909,-0.2903,-0.2903,-0.292,-0.2912,-0.2903,-0.2901,-0.2902,-0.2908,-0.2912,-0.2913,-0.2939,-0.2912,-0.2913,-0.2914,-0.2914,-0.299,-0.2991,0,0,0,0,0,0,-0.29,-0.2901,-0.2922,-0.2923,-0.2901,-0.2905,-0.2905,-0.2911,-0.2912,-0.2911,-0.2903,-0.2901,-0.291,-0.2911,-0.2913,-0.2949,-0.2913,-0.2914,-0.2915,-0.2988,-0.299,-0.2991,0,0,0,0,0,0,-0.2899,-0.2902,-0.2922,-0.2911,-0.2913,-0.2906,-0.2914,-0.2912,-0.2916,-0.2912,-0.291,-0.2908,-0.2909,-0.2911,-0.2932,-0.2949,-0.2915,-0.2916,-0.2987,-0.2989,-0.2991,-0.3021,0,0,0,0,0,0,-0.2898,-0.2902,-0.2913,-0.2912,-0.2914,-0.2941,-0.2915,-0.2913,-0.2918,-0.2915,-0.2916,-0.2916,-0.2908,-0.293,-0.2933,-0.295,-0.2917,-0.2986,-0.2988,-0.299,-0.3019,-0.3024,-0.3028,0,0,0,0,0,-0.2897,-0.2922,-0.2914,-0.2917,-0.2928,-0.2942,-0.2943,-0.2934,-0.2919,-0.2931,-0.2928,-0.2916,-0.2946,-0.2932,-0.2936,-0.2953,-0.2984,-0.2987,-0.299,-0.3017,-0.3023,-0.3028,0,0,0,0,0,0,-0.2928,-0.2922,-0.2913,-0.2938,-0.294,-0.2937,-0.2952,-0.2941,-0.2948,-0.2945,-0.2934,-0.2934,-0.2957,-0.2957,-0.2942,-0.2983,-0.2963,-0.2966,-0.2982,-0.2988,-0.2993,-0.2993,-0.2918,0,0,0,0,0,-0.2937,-0.2948,-0.2943,-0.2966,-0.2967,-0.2959,-0.2965,-0.2957,-0.296,-0.2961,-0.296,-0.2963,-0.2973,-0.298,-0.299,-0.3018,-0.3018,-0.3032,-0.3036,-0.304,-0.3044,-0.3058,-0.3064,-0.3,-0.3,-0.3,0,0,-0.2957,-0.2955,-0.2964,-0.2972,-0.2973,-0.2985,-0.2961,-0.2975,-0.2984,-0.2963,-0.2983,-0.2982,-0.2985,-0.3009,-0.302,-0.301,-0.3061,-0.3044,-0.3047,-0.3048,-0.3062,-0.3068,-0.3073,-0.3002,-0.3001,-0.3001,0,0,-0.3,-0.3,-0.3019,-0.3019,-0.3021,-0.3015,-0.3019,-0.3018,-0.3016,-0.3035,-0.3019,-0.303,-0.3048,-0.3051,-0.3054,-0.3096,-0.3085,-0.3099,-0.3125,-0.3139,-0.3144,-0.3149,-0.3164,-0.3169,-0.3103,-0.3103,-0.3103,0,-0.3026,-0.3043,-0.303,-0.3044,-0.3049,-0.3029,-0.3048,-0.305,-0.3054,-0.3058,-0.3046,-0.3067,-0.3068,-0.3093,-0.3103,-0.3106,-0.3111,-0.31,-0.3144,-0.3149,-0.3153,-0.3167,-0.3173,-0.3105,-0.3104,-0.3104,-0.3104,0,-0.3073,-0.3085,-0.31,-0.3104,-0.3109,-0.3126,-0.3116,-0.3124,-0.3115,-0.311,-0.3129,-0.3129,-0.3138,-0.3142,-0.3135,-0.3166,-0.3159,-0.3146,-0.3126,-0.3161,-0.3174,-0.318,-0.3107,-0.3106,-0.3106,-0.3106,0,0,-0.3138,-0.3132,-0.3138,-0.3139,-0.3138,-0.3148,-0.3163,-0.317,-0.3177,-0.318,-0.3193,-0.3208,-0.3195,-0.3199,-0.3191,-0.3204,-0.3237,-0.3189,-0.3189,-0.3198,-0.3271,-0.3282,-0.3288,-0.3228,-0.3229,-0.323,-0.3271,0,-0.318,-0.3206,-0.3194,-0.3222,-0.3232,-0.3213,-0.3226,-0.3227,-0.3223,-0.3232,-0.3227,-0.3238,-0.322,-0.3223,-0.3234,-0.323,-0.3251,-0.3227,-0.3241,-0.3242,-0.3242,-0.3295,-0.3307,-0.3345,-0.3276,-0.3277,-0.3277,0,-0.3234,-0.3238,-0.3266,-0.3262,-0.3266,-0.3278,-0.3283,-0.3291,-0.3292,-0.3288,-0.3292,-0.328,-0.3295,-0.3274,-0.3295,-0.3279,-0.3283,-0.3282,-0.3284,-0.3286,-0.3263,-0.3299,-0.3357,-0.3363,-0.3285,-0.3285,-0.3284,0,-0.3278,-0.3291,-0.3309,-0.331,-0.3306,-0.3315,-0.3314,-0.3313,-0.3317,-0.3322,-0.3325,-0.3331,-0.3335,-0.334,-0.3331,-0.3317,-0.3353,-0.3331,-0.3351,-0.3351,-0.3361,-0.336,-0.3421,-0.3362,-0.3362,-0.3362,-0.3362,0,-0.3327,-0.3345,-0.3329,-0.334,-0.3359,-0.3345,-0.3365,-0.3362,-0.3361,-0.3371,-0.3355,-0.3365,-0.3352,-0.3361,-0.3353,-0.3372,-0.3374,-0.3371,-0.3369,-0.3373,-0.3374,-0.3377,-0.3375,-0.3364,-0.3363,-0.3363,-0.3363,0,-0.3381,-0.3371,-0.3389,-0.3383,-0.3381,-0.3396,-0.3391,-0.3401,-0.3395,-0.3408,-0.3411,-0.3401,-0.3411,-0.3401,-0.3411,-0.3406,-0.343,-0.3424,-0.343,-0.3429,-0.3449,-0.3447,-0.3515,-0.3523,-0.3458,-0.3459,-0.3459,0,-0.3414,-0.3427,-0.3421,-0.3426,-0.3426,-0.3435,-0.3439,-0.3425,-0.343,-0.3431,-0.3441,-0.3449,-0.3455,-0.3471,-0.3465,-0.3472,-0.3467,-0.349,-0.3468,-0.3471,-0.3468,-0.3467,-0.3469,-0.3495,-0.3495,-0.3496,-0.3497,0,-0.3473,-0.3466,-0.3473,-0.3477,-0.3482,-0.3485,-0.3486,-0.3492,-0.3477,-0.3484,-0.3493,-0.3497,-0.3506,-0.3514,-0.3519,-0.3518,-0.3505,-0.3503,-0.3508,-0.3513,-0.3516,-0.3515,-0.3443,-0.3502,-0.3502,-0.3501,-0.3501,-0.3501,-0.3517,-0.3528,-0.3525,-0.3532,-0.3532,-0.3533,-0.3542,-0.3536,-0.3543,-0.3549,-0.354,-0.3551,-0.355,-0.3555,-0.3555,-0.3564,-0.3555,-0.3562,-0.3564,-0.3566,-0.3569,-0.3513,-0.3565,-0.3565,-0.3565,-0.3564,-0.3564,0,-0.3576,-0.3573,-0.3579,-0.3581,-0.3587,-0.3572,-0.3573,-0.3579,-0.3589,-0.3588,-0.3594,-0.3604,-0.3611,-0.3605,-0.3611,-0.362,-0.3614,-0.3622,-0.3622,-0.3622,-0.3577,-0.3572,-0.3626,-0.3626,-0.3626,-0.3626,-0.3626,-0.3626,-0.3607,-0.3624,-0.3617,-0.3633,-0.363,-0.364,-0.3642,-0.3643,-0.3642,-0.3654,-0.366,-0.3655,-0.3652,-0.3658,-0.3664,-0.3662,-0.3666,-0.3676,-0.3672,-0.3631,-0.3625,-0.3619,-0.3615,-0.3676,-0.3676,-0.3716,-0.3716,-0.3716]},{"header":{"parameterUnit":"m.s-1","parameterCategory":1,"la1":30.2991,"la2":30.254,"lo1":-89.0895,"lo2":-89.0444,"dy":0.0017,"dx":0.0017,"nx":28,"ny":28,"refTime":"2026-01-11T03:00:00:Z","depth":0,"parameterNumber":3,"parameterNumberName":"V-component_of_WINDS"},"data":[0,0,0,0,0,0,0,0,0,0,0,0,0,0,0,0,0,0,0,0,0,0,0,0,0,0,0,0,0,0,0,0,0,0,0,0,0,0,0,0,0,0,0,0,0,0,0,0,0,0,0,0,0,0,0,0,0,0,-6.9784,-6.9785,0,-6.9881,-6.9882,-6.9883,-6.9851,-6.9849,-6.9847,-6.9845,-6.9939,-6.9943,-6.9947,0,0,0,0,0,0,0,0,0,0,0,0,0,-6.9568,-6.9572,-6.9784,-6.9785,-6.9786,-6.988,-6.9882,-6.9883,-6.9851,-6.9849,-6.9846,-6.9844,-6.9937,-6.9942,-6.9948,0,0,0,0,0,0,0,0,0,0,0,0,0,-6.9662,-6.9573,-6.9783,-6.9782,-6.9783,-6.988,-6.9882,-6.9883,-6.9852,-6.9849,-6.9846,-6.9843,-6.9935,-6.9942,-6.9948,-7.0052,0,0,-6.9969,-6.9972,0,0,0,0,0,0,0,0,-6.9657,-6.967,-6.9781,-6.9782,-6.9783,-6.9851,-6.984,-6.994,-6.9853,-6.9825,-6.9845,-6.9841,-6.9911,-6.992,-6.9945,-7.0056,-7.006,-6.9969,-6.9973,-6.9976,-6.9978,0,0,0,0,0,0,0,-6.9651,-6.9666,-6.9822,-6.9782,-6.9784,-6.9775,-6.9785,-6.9859,-6.9884,-6.9827,-6.9825,-6.9838,-6.9911,-6.9938,-6.9947,-7.0061,-6.9969,-6.9975,-6.9979,-6.9982,-7.0264,-7.0268,0,0,0,0,0,0,-6.9644,-6.9661,-6.9819,-6.9825,-6.9711,-6.9781,-6.9793,-6.9832,-6.9884,-6.9889,-6.984,-6.9836,-6.9928,-6.9939,-6.995,-7.0075,-6.9976,-6.9982,-6.9986,-7.0261,-7.0265,-7.0269,0,0,0,0,0,0,-6.9639,-6.9658,-6.9815,-6.9742,-6.9762,-6.9788,-6.9833,-6.9836,-6.9862,-6.9893,-6.9897,-6.9863,-6.9926,-6.994,-7.0027,-7.0078,-6.9985,-6.9991,-7.0257,-7.0262,-7.0267,-7.0327,0,0,0,0,0,0,-6.9633,-6.9657,-6.9697,-6.9744,-6.9766,-6.9892,-6.9836,-6.984,-6.9875,-6.987,-6.9916,-6.9921,-6.9925,-7.0018,-7.0034,-7.0086,-6.9997,-7.0252,-7.0259,-7.0265,-7.032,-7.0334,-7.0345,0,0,0,0,0,-6.9626,-6.9709,-6.9699,-6.9719,-6.9817,-6.9895,-6.9908,-6.9913,-6.9879,-6.9919,-6.9939,-6.9919,-7.007,-7.0027,-7.0045,-7.0099,-7.0249,-7.0257,-7.0265,-7.0315,-7.0331,-7.0345,0,0,0,0,0,0,-6.9665,-6.9715,-6.9705,-6.9806,-6.9847,-6.989,-6.9941,-6.9929,-6.9979,-6.9972,-6.9975,-6.9986,-7.0075,-7.0096,-7.0047,-7.0203,-7.0154,-7.0166,-7.0186,-7.0202,-7.0214,-7.0207,-7.0002,0,0,0,0,0,-6.9686,-6.9747,-6.9786,-6.9871,-6.9893,-6.9913,-6.9947,-6.9948,-6.999,-7.0007,-7.0033,-7.0073,-7.013,-7.0167,-7.022,-7.0323,-7.0333,-7.037,-7.0382,-7.0392,-7.0402,-7.0459,-7.0476,-7.0295,-7.0295,-7.0295,0,0,-6.9728,-6.9763,-6.9801,-6.988,-6.9912,-6.9974,-6.9928,-6.9995,-7.0041,-7.0016,-7.0101,-7.0122,-7.0167,-7.0263,-7.0306,-7.0283,-7.0455,-7.0402,-7.041,-7.0414,-7.0469,-7.0486,-7.0502,-7.03,-7.0299,-7.0298,0,0,-6.9838,-6.9871,-6.9946,-6.998,-7.003,-7.0044,-7.0062,-7.0107,-7.0121,-7.0206,-7.019,-7.0244,-7.0341,-7.0374,-7.0404,-7.0529,-7.0512,-7.0546,-7.0609,-7.0665,-7.068,-7.0692,-7.0738,-7.0754,-7.0556,-7.0556,-7.0557,0,-6.9884,-6.9979,-6.9985,-7.0056,-7.0091,-7.0074,-7.015,-7.0182,-7.0246,-7.027,-7.0243,-7.0367,-7.0395,-7.05,-7.0531,-7.0555,-7.0575,-7.0541,-7.0677,-7.069,-7.0702,-7.0745,-7.0762,-7.056,-7.056,-7.0559,-7.0559,0,-7.0034,-7.01,-7.0155,-7.022,-7.0262,-7.0334,-7.0351,-7.0392,-7.0389,-7.0405,-7.0493,-7.0528,-7.0589,-7.0613,-7.061,-7.0718,-7.0702,-7.0676,-7.0627,-7.0723,-7.0764,-7.0781,-7.0566,-7.0564,-7.0563,-7.0562,0,0,-7.017,-7.024,-7.026,-7.0291,-7.0346,-7.0396,-7.0468,-7.053,-7.0566,-7.0611,-7.0671,-7.0755,-7.0732,-7.0766,-7.0767,-7.0816,-7.0914,-7.0784,-7.0785,-7.0808,-7.1036,-7.1055,-7.1074,-7.0904,-7.0907,-7.0909,-7.1032,0,-7.0285,-7.0414,-7.0422,-7.0538,-7.06,-7.0585,-7.0648,-7.0688,-7.0706,-7.0759,-7.0777,-7.0838,-7.0803,-7.0823,-7.0871,-7.0892,-7.096,-7.0883,-7.0959,-7.0962,-7.0949,-7.1095,-7.1116,-7.123,-7.1048,-7.1051,-7.1053,0,-7.0436,-7.0489,-7.0612,-7.0661,-7.0687,-7.0743,-7.0802,-7.0853,-7.0899,-7.0908,-7.0947,-7.0942,-7.1015,-7.0964,-7.1064,-7.1012,-7.1044,-7.1059,-7.1063,-7.107,-7.1013,-7.1107,-7.1266,-7.1283,-7.1078,-7.1076,-7.1074,0,-7.0524,-7.0626,-7.0713,-7.0739,-7.0798,-7.0838,-7.0864,-7.0906,-7.0944,-7.0994,-7.1019,-7.1076,-7.1108,-7.1152,-7.1162,-7.1124,-7.1263,-7.1213,-7.1273,-7.1273,-7.1302,-7.13,-7.1469,-7.1322,-7.1322,-7.1322,-7.1321,0,-7.0652,-7.0728,-7.0754,-7.0807,-7.0892,-7.0901,-7.0984,-7.1007,-7.1046,-7.1103,-7.1093,-7.1146,-7.1156,-7.1212,-7.122,-7.1302,-7.1316,-7.1325,-7.1327,-7.1327,-7.1326,-7.1347,-7.134,-7.1326,-7.1325,-7.1324,-7.1324,0,-7.0764,-7.0785,-7.0879,-7.0928,-7.0942,-7.1002,-7.1043,-7.1095,-7.1112,-7.1184,-7.1202,-7.1228,-7.1293,-7.1308,-7.1384,-7.139,-7.1488,-7.1481,-7.1474,-7.1473,-7.1532,-7.1527,-7.1721,-7.1747,-7.1583,-7.1584,-7.1586,0,-7.0845,-7.0903,-7.096,-7.0999,-7.1027,-7.1089,-7.1128,-7.114,-7.1181,-7.1238,-7.1282,-7.1347,-7.1399,-7.1503,-7.1528,-7.1587,-7.1582,-7.1646,-7.159,-7.1589,-7.1583,-7.158,-7.1586,-7.1656,-7.1658,-7.1659,-7.1661,0,-7.0986,-7.0994,-7.1052,-7.1114,-7.1162,-7.1211,-7.1257,-7.1289,-7.1307,-7.1353,-7.1421,-7.1462,-7.1542,-7.1606,-7.1665,-7.169,-7.1679,-7.1678,-7.1695,-7.1696,-7.1689,-7.1695,-7.1503,-7.1673,-7.1672,-7.1671,-7.167,-7.167,-7.1085,-7.1137,-7.1186,-7.1251,-7.1288,-7.1333,-7.1384,-7.1409,-7.1466,-7.1534,-7.1536,-7.161,-7.1655,-7.1734,-7.1763,-7.182,-7.18,-7.1825,-7.1831,-7.1837,-7.1843,-7.1681,-7.1831,-7.183,-7.183,-7.183,-7.1829,0,-7.1226,-7.1258,-7.1318,-7.1385,-7.1437,-7.1424,-7.1475,-7.1519,-7.1585,-7.1628,-7.1681,-7.1759,-7.1822,-7.1853,-7.1915,-7.1955,-7.1951,-7.1971,-7.1968,-7.1974,-7.1857,-7.1836,-7.1973,-7.1973,-7.1973,-7.1973,-7.1973,-7.1973,-7.1306,-7.1394,-7.1408,-7.1514,-7.1545,-7.1619,-7.165,-7.1691,-7.1726,-7.1815,-7.1868,-7.1889,-7.1927,-7.1992,-7.2049,-7.2057,-7.208,-7.2102,-7.2107,-7.1997,-7.1982,-7.1968,-7.1949,-7.2107,-7.2107,-7.222,-7.2221,-7.2222]}]]